Location: Unspecified
(54.1780°N, 0.0000°E)
Time: 20:33:51
(UTC+00:00)

Transit 2A - Pass Details

Date: 25 June 2019
Orbit: 597 x 962 km, 66.7° (Epoch: 21 August)

Event Time Altitude Azimuth Distance (km) Brightness Sun altitude
Rises 00:25:59 0° 219° (SW) 3,635 - -12.3°
Reaches altitude 10° 00:28:33 10° 219° (SW) 2,694 - -12.2°
Exits shadow 00:28:37 10° 219° (SW) 2,671 8.3 -12.2°
Maximum altitude 00:34:56 89° 140° (SE) 954 6.5 -12.1°
Drops below altitude 10° 00:41:06 10° 42° (NE) 2,601 9.7 -12.0°
Sets 00:43:32 0° 42° (NE) 3,502 10.5 -11.9°
